Date_and_time,latitude,longitude,wind_speed,RelWindDirFrom,WindDirFrom,air_pressure,air_temperature,relative_humidity,Temp,platform_speed_wrt_ground,air_pressure_at_mean_sea_level,platform_orientation
2018-07-22 23:50,50.63043,-96.9807766666667,11.5,15.1,180,987.30,22.4,89,23.63,0.0,1013.07,90.0
2018-07-23 00:00,50.6304416666667,-96.9807733333333,12.4,15.1,176,987.08,22.4,87,23.64,0.0,1012.85,176.8
2018-07-23 00:10,50.6304416666667,-96.9807766666667,10.8,13.0,174,987.00,22.4,89,23.64,0.0,1012.75,176.8
2018-07-23 00:20,50.6304416666667,-96.9807716666667,11.0,13.8,176,987.01,22.6,87,23.64,0.0,1012.75,176.8
2018-07-23 00:30,50.6304416666667,-96.9807683333333,10.9,14.5,175,986.98,22.6,86,23.64,0.0,1012.70,176.8
2018-07-23 00:40,50.63044,-96.98077,10.9,14.5,174,986.92,23.0,84,23.64,0.0,1012.61,176.8
2018-07-23 00:50,50.6304333333333,-96.9807283333333,11.3,14.8,177,986.87,23.2,84,23.64,0.0,1012.57,176.8
2018-07-23 01:00,50.6304333333333,-96.9807566666667,10.1,13.7,181,986.85,23.0,85,23.65,0.0,1012.57,57.7
2018-07-23 01:10,50.63043,-96.9807583333333,7.2,10.2,186,986.82,22.8,88,23.65,0.0,1012.53,57.7
2018-07-23 01:20,50.630435,-96.9807616666667,7.9,9.9,182,986.82,22.8,88,23.61,0.0,1012.51,57.7
2018-07-23 01:30,50.63042,-96.9807283333333,8.3,9.9,181,986.70,22.8,88,23.65,0.0,1012.38,57.7
2018-07-23 01:40,50.63044,-96.9807533333333,8.3,10.4,178,986.62,22.8,90,23.65,0.0,1012.30,57.7
2018-07-23 01:50,50.6304166666667,-96.98076,7.0,9.0,179,986.76,22.7,90,23.65,0.0,1012.44,57.7
2018-07-23 02:00,50.6304333333333,-96.9807533333333,6.3,8.8,184,986.92,22.6,91,23.65,0.0,1012.61,119.2
2018-07-23 02:10,50.630435,-96.9807583333333,6.7,8.2,180,986.87,22.5,91,23.65,0.0,1012.56,119.2
2018-07-23 02:20,50.6304333333333,-96.9807633333333,5.4,7.1,182,986.91,22.3,91,23.64,0.0,1012.60,119.2
2018-07-23 02:30,50.630435,-96.980765,5.0,7.1,189,987.11,22.2,93,23.64,0.0,1012.80,119.2
2018-07-23 02:40,50.6303966666667,-96.9807566666667,5.4,6.9,190,987.29,22.1,94,23.64,0.0,1012.98,119.2
2018-07-23 02:50,50.630435,-96.9807783333333,7.2,11.0,186,987.31,22.0,94,23.64,0.0,1013.01,119.2
2018-07-23 03:00,50.6304433333333,-96.9807716666667,8.3,11.2,186,987.40,22.0,92,23.64,0.0,1013.11,0.0
2018-07-23 03:10,50.6304383333333,-96.9807666666667,9.4,12.1,184,987.34,22.0,91,23.63,0.0,1013.05,0.0
2018-07-23 03:20,50.6304366666667,-96.9807616666667,8.6,10.7,185,987.32,21.8,92,23.62,0.0,1013.04,0.0
2018-07-23 03:30,50.6304366666667,-96.980765,7.9,10.4,193,987.18,21.8,92,23.62,0.0,1012.91,0.0
2018-07-23 03:40,50.6304383333333,-96.980765,8.4,13.6,261,987.50,21.6,82,23.61,0.0,1013.24,0.0
2018-07-23 03:50,50.6304366666667,-96.980765,8.3,12.5,256,987.78,20.9,68,23.60,0.0,1013.57,0.0
2018-07-23 04:00,50.630435,-96.980765,7.6,10.9,241,987.62,19.9,71,23.59,0.0,1013.44,311.7
2018-07-23 04:10,50.630435,-96.9807666666667,5.7,9.4,234,987.33,19.1,77,23.59,0.0,1013.19,311.7
2018-07-23 04:20,50.630435,-96.980765,4.8,7.8,207,987.12,18.7,80,23.58,0.0,1013.00,311.7
2018-07-23 04:30,50.630435,-96.980765,5.5,7.7,204,987.05,18.4,84,23.58,0.0,1012.95,311.7
2018-07-23 04:40,50.630435,-96.9807666666667,5.4,7.1,207,987.07,18.1,87,23.57,0.0,1012.99,311.7
2018-07-23 04:50,50.630435,-96.9807666666667,5.2,6.3,207,987.01,18.0,88,23.56,0.0,1012.93,311.7
2018-07-23 05:00,50.6304366666667,-96.9807666666667,4.6,6.6,226,987.03,18.1,88,23.54,0.0,1012.95,299.2
2018-07-23 05:10,50.6304366666667,-96.9807666666667,6.0,7.7,230,986.98,17.9,87,23.52,0.0,1012.91,299.2
2018-07-23 05:20,50.6304366666667,-96.9807666666667,6.3,9.7,223,987.06,17.7,90,23.52,0.0,1013.00,299.2
2018-07-23 05:30,50.6304283333333,-96.9807633333333,6.1,8.2,227,987.09,17.3,94,23.51,0.0,1013.06,299.2
2018-07-23 05:40,50.6304416666667,-96.9807583333333,5.5,7.4,225,987.09,17.0,97,23.49,0.0,1013.10,299.2
2018-07-23 05:50,50.6304416666667,-96.9807566666667,6.0,8.1,224,987.06,16.7,97,23.46,0.0,1013.13,299.2
2018-07-23 06:00,50.63044,-96.9807566666667,5.6,8.4,221,987.21,16.6,98,23.46,0.0,1013.33,90.0
2018-07-23 06:10,50.63044,-96.98076,4.8,7.2,223,987.28,16.5,99,23.47,0.0,1013.42,90.0
2018-07-23 06:20,50.63044,-96.9807616666667,5.4,7.3,219,987.35,16.5,99,23.45,0.0,1013.51,90.0
2018-07-23 06:30,50.63044,-96.9807616666667,5.9,7.7,209,987.35,16.5,98,23.44,0.0,1013.52,90.0
2018-07-23 06:40,50.6304383333333,-96.9807616666667,6.0,8.1,210,987.34,16.6,97,23.43,0.0,1013.51,90.0
2018-07-23 06:50,50.6304183333333,-96.9807566666667,5.7,7.5,205,987.26,16.8,97,23.42,0.0,1013.42,90.0
2018-07-23 07:00,50.6304183333333,-96.9807583333333,5.9,7.8,210,987.24,16.8,97,23.41,0.0,1013.41,360.0
2018-07-23 07:10,50.6304216666667,-96.9807616666667,5.5,7.4,212,987.22,16.8,97,23.40,0.0,1013.40,360.0
2018-07-23 07:20,50.6304216666667,-96.9807616666667,5.5,8.1,215,987.21,16.8,98,23.37,0.0,1013.40,360.0
2018-07-23 07:30,50.6304183333333,-96.9807566666667,5.2,8.0,216,987.12,16.8,99,23.37,0.0,1013.32,360.0
2018-07-23 07:40,50.6304666666667,-96.98078,4.6,6.2,221,987.10,16.8,99,23.38,0.0,1013.31,360.0
2018-07-23 07:50,50.6304316666667,-96.98077,5.1,7.4,222,987.08,16.7,99,23.37,0.0,1013.30,360.0
2018-07-23 08:00,50.6304333333333,-96.98077,6.1,8.5,223,987.06,16.6,99,23.35,0.0,1013.29,142.0
2018-07-23 08:10,50.6304283333333,-96.9807666666667,6.3,8.5,221,987.06,16.5,99,23.34,0.0,1013.30,142.0
2018-07-23 08:20,50.6304316666667,-96.9807733333333,6.1,8.3,220,987.16,16.6,99,23.33,0.0,1013.39,142.0
2018-07-23 08:30,50.6304266666667,-96.9807733333333,5.2,8.3,217,987.11,16.8,98,23.33,0.0,1013.33,142.0
2018-07-23 08:40,50.6304283333333,-96.9807733333333,5.4,7.8,217,987.19,16.8,98,23.33,0.0,1013.40,142.0
2018-07-23 08:50,50.63043,-96.9807733333333,6.1,8.3,220,987.21,16.6,98,23.32,0.0,1013.43,142.0
2018-07-23 09:00,50.6304283333333,-96.980765,6.0,8.5,219,987.26,16.5,98,23.31,0.0,1013.49,360.0
2018-07-23 09:10,50.6304333333333,-96.9807683333333,5.7,7.8,222,987.26,16.5,97,23.30,0.0,1013.49,360.0
2018-07-23 09:20,50.630415,-96.980745,5.8,7.7,222,987.34,16.4,96,23.27,0.0,1013.57,360.0
2018-07-23 09:30,50.6304266666667,-96.9807616666667,5.2,8.2,220,987.35,16.4,97,23.26,0.0,1013.59,360.0
2018-07-23 09:40,50.6304266666667,-96.9807666666667,5.8,7.9,222,987.38,16.2,97,23.26,0.0,1013.63,360.0
2018-07-23 09:50,50.6304216666667,-96.9807633333333,4.9,6.7,222,987.40,16.1,97,23.26,0.0,1013.66,360.0
2018-07-23 10:00,50.6304233333333,-96.980765,4.1,5.9,224,987.41,16.0,98,23.26,0.0,1013.68,360.0
2018-07-23 10:10,50.6304066666667,-96.980755,5.0,7.1,220,987.45,15.8,98,23.25,0.0,1013.72,360.0
2018-07-23 10:20,50.6304233333333,-96.9807566666667,5.0,6.4,224,987.37,15.6,98,23.25,0.0,1013.65,360.0
2018-07-23 10:30,50.630435,-96.9807666666667,4.3,7.0,219,987.39,15.6,98,23.22,0.0,1013.67,360.0
2018-07-23 10:40,50.63043,-96.9807683333333,4.9,6.5,215,987.45,16.1,94,23.20,0.0,1013.71,360.0
2018-07-23 10:50,50.6304283333333,-96.9807716666667,4.8,7.1,217,987.43,16.4,92,23.15,0.0,1013.68,360.0
2018-07-23 11:00,50.630425,-96.9807716666667,5.7,7.7,214,987.50,16.4,93,23.13,0.0,1013.75,228.3
2018-07-23 11:10,50.6304333333333,-96.9807733333333,5.8,8.1,220,987.56,16.3,93,23.13,0.0,1013.82,228.3
2018-07-23 11:20,50.6305066666667,-96.98076,6.7,9.0,223,987.53,16.1,94,23.12,0.0,1013.81,228.3
2018-07-23 11:30,50.6304283333333,-96.9807766666667,6.7,9.1,224,987.53,16.1,94,23.11,0.0,1013.82,228.3
2018-07-23 11:40,50.6304316666667,-96.9807766666667,6.7,9.3,222,987.53,16.1,95,23.10,0.0,1013.81,228.3
2018-07-23 11:50,50.6304316666667,-96.9807666666667,6.8,9.1,226,987.48,16.1,94,23.09,0.0,1013.77,228.3
2018-07-23 12:00,50.6304316666667,-96.9807716666667,7.0,9.8,230,987.49,16.3,92,23.07,0.0,1013.78,347.4
2018-07-23 12:10,50.6304383333333,-96.9807683333333,7.4,10.1,230,987.49,16.5,91,23.05,0.0,1013.78,347.4
2018-07-23 12:20,50.630435,-96.98077,6.7,9.9,234,987.49,16.7,89,23.05,0.0,1013.77,347.4
2018-07-23 12:30,50.6304316666667,-96.9807733333333,6.7,9.3,236,987.53,17.1,87,23.04,0.0,1013.77,347.4
2018-07-23 12:40,50.6304316666667,-96.9807716666667,6.8,9.4,235,987.54,17.4,87,23.03,0.0,1013.76,347.4
2018-07-23 12:50,50.63043,-96.98077,6.8,9.3,232,987.54,17.6,86,23.01,0.0,1013.74,347.4
2018-07-23 13:00,50.63043,-96.98077,6.1,9.4,225,987.53,17.8,87,23.00,0.0,1013.73,90.0
2018-07-23 13:10,50.63043,-96.9807683333333,6.9,10.7,230,987.51,18.1,86,22.97,0.0,1013.70,90.0
2018-07-23 13:20,50.63043,-96.9807716666667,7.4,10.2,233,987.55,18.4,84,22.96,0.0,1013.73,90.0
2018-07-23 13:30,50.63043,-96.98077,7.3,11.5,226,987.54,18.5,83,22.94,0.0,1013.71,90.0
2018-07-23 13:40,50.6304283333333,-96.9807716666667,7.0,11.7,231,987.54,18.7,83,22.93,0.0,1013.71,90.0
2018-07-23 13:50,50.63043,-96.9807733333333,8.9,13.1,236,987.59,18.9,80,22.93,0.0,1013.75,90.0
2018-07-23 14:00,50.63043,-96.9807716666667,8.4,13.6,235,987.68,19.0,78,22.95,0.0,1013.82,90.0
2018-07-23 14:10,50.6304466666667,-96.98078,7.8,12.5,241,987.77,19.2,78,22.96,0.0,1013.89,90.0
2018-07-23 14:20,50.6304383333333,-96.9807683333333,9.3,15.3,260,987.82,19.4,76,22.98,0.0,1013.91,90.0
2018-07-23 14:30,50.6304366666667,-96.9807683333333,9.8,16.5,251,987.86,19.4,76,23.00,0.0,1013.95,90.0
2018-07-23 14:40,50.6304383333333,-96.9807666666667,10.5,15.0,257,987.86,19.5,74,23.03,0.0,1013.93,90.0
2018-07-23 14:50,50.63044,-96.980765,8.8,14.2,254,987.96,19.6,74,23.07,0.0,1014.02,90.0
2018-07-23 15:00,50.63044,-96.980765,9.8,16.4,253,988.00,19.7,73,23.09,0.0,1014.05,14.5
2018-07-23 15:10,50.63044,-96.9807633333333,8.8,16.4,244,988.01,19.9,71,23.11,0.0,1014.03,14.5
2018-07-23 15:20,50.63044,-96.9807633333333,10.0,12.9,235,988.01,20.0,68,23.14,0.0,1014.02,14.5
2018-07-23 15:30,50.6304533333333,-96.9807733333333,8.4,12.6,228,987.91,20.0,67,23.16,0.0,1013.91,14.5
2018-07-23 15:40,50.6304466666667,-96.9807716666667,8.1,13.9,240,987.78,20.5,63,23.17,0.0,1013.75,14.5
2018-07-23 15:50,50.6304466666667,-96.9807683333333,8.7,15.4,250,987.71,20.8,59,23.20,0.0,1013.66,14.5
2018-07-23 16:00,50.6304433333333,-96.980765,8.5,14.7,256,987.67,21.1,59,23.21,0.0,1013.60,18.9
2018-07-23 16:10,50.6304433333333,-96.9807633333333,10.0,17.3,254,987.69,21.1,59,23.22,0.0,1013.60,18.9
2018-07-23 16:20,50.6304433333333,-96.9807616666667,11.4,15.8,257,987.76,21.0,58,23.26,0.0,1013.68,18.9
2018-07-23 16:30,50.630445,-96.9807633333333,10.0,16.3,252,987.80,20.9,57,23.32,0.0,1013.72,18.9
2018-07-23 16:40,50.6304433333333,-96.9807633333333,10.1,15.7,245,987.80,21.1,57,23.36,0.0,1013.71,18.9
2018-07-23 16:50,50.6304433333333,-96.980765,11.4,18.3,246,987.87,21.0,57,23.40,0.0,1013.78,18.9
2018-07-23 17:00,50.6304533333333,-96.98076,11.1,17.6,248,987.89,21.0,56,23.40,0.0,1013.79,20.1
2018-07-23 17:10,50.6304283333333,-96.9807616666667,12.2,17.5,236,987.91,21.0,56,23.41,0.0,1013.81,20.1
2018-07-23 17:20,50.6304333333333,-96.98075,12.6,17.6,238,988.02,21.0,55,23.47,0.0,1013.92,20.1
2018-07-23 17:30,50.6304333333333,-96.98075,10.6,16.5,247,988.07,21.0,55,23.52,0.0,1013.95,20.1
2018-07-23 17:40,50.630435,-96.9807516666667,10.1,17.7,249,988.10,21.3,55,23.54,0.0,1013.96,20.1
2018-07-23 17:50,50.630435,-96.980755,8.3,14.0,263,988.08,21.3,56,23.54,0.0,1013.92,20.1
2018-07-23 18:00,50.6304366666667,-96.9807583333333,9.1,14.5,262,988.03,21.5,54,23.54,0.0,1013.86,167.4
2018-07-23 18:10,50.6304666666667,-96.980785,9.3,14.7,238,988.09,21.8,54,23.55,0.0,1013.91,167.4
2018-07-23 18:20,50.6304433333333,-96.98078,9.0,13.9,247,988.12,21.8,55,23.61,0.0,1013.95,167.4
2018-07-23 18:30,50.6304333333333,-96.9807433333333,10.3,15.0,252,988.11,21.9,54,23.66,0.0,1013.93,167.4
2018-07-23 18:40,50.6304283333333,-96.980755,9.9,15.1,252,988.14,21.7,54,23.61,0.0,1013.96,167.4
2018-07-23 18:50,50.6304283333333,-96.9807533333333,9.6,16.0,258,988.06,21.9,54,23.60,0.0,1013.88,167.4
2018-07-23 19:00,50.6304333333333,-96.9807533333333,9.3,14.9,252,988.11,22.0,52,23.69,0.0,1013.92,131.7
2018-07-23 19:10,50.630435,-96.9807566666667,10.5,15.0,245,988.11,22.1,53,23.73,0.0,1013.92,131.7
2018-07-23 19:20,50.63044,-96.980755,12.2,18.6,229,988.12,22.1,52,23.74,0.0,1013.93,131.7
2018-07-23 19:30,50.63043,-96.980755,10.1,17.2,249,988.10,22.2,52,23.71,0.0,1013.90,131.7
2018-07-23 19:40,50.6304333333333,-96.9807733333333,11.1,15.7,244,988.15,22.2,52,23.74,0.0,1013.95,131.7
2018-07-23 19:50,50.63044,-96.9807733333333,10.2,16.3,240,988.12,22.3,52,23.77,0.0,1013.90,131.7
2018-07-23 20:00,50.6304416666667,-96.980775,9.4,14.4,236,988.10,22.4,52,23.79,0.0,1013.86,216.6
2018-07-23 20:10,50.63044,-96.9807766666667,10.7,16.2,237,988.11,22.4,52,23.81,0.0,1013.87,216.6
2018-07-23 20:20,50.6304416666667,-96.980775,8.1,14.2,243,988.14,22.3,52,23.81,0.0,1013.90,216.6
2018-07-23 20:30,50.6304416666667,-96.980775,10.2,15.8,236,988.14,22.5,52,23.82,0.0,1013.90,216.6
2018-07-23 20:40,50.6304433333333,-96.980775,10.8,15.7,245,988.10,22.7,51,23.83,0.0,1013.84,216.6
2018-07-23 20:50,50.6304433333333,-96.980775,10.0,13.7,240,988.07,22.8,50,23.85,0.0,1013.80,216.6
2018-07-23 21:00,50.6304433333333,-96.980775,9.9,15.8,251,988.03,22.9,50,23.89,0.0,1013.75,299.2
2018-07-23 21:10,50.63043,-96.9807633333333,8.9,15.5,250,988.03,22.9,49,23.94,0.0,1013.75,299.2
2018-07-23 21:20,50.6304416666667,-96.9807633333333,11.3,17.3,239,988.07,23.0,47,24.00,0.0,1013.79,299.2
2018-07-23 21:30,50.63044,-96.980765,12.4,17.9,235,988.11,22.8,46,24.06,0.0,1013.83,299.2
2018-07-23 21:40,50.6304433333333,-96.9807666666667,7.6,13.6,264,988.01,22.9,48,24.08,0.0,1013.72,299.2
2018-07-23 21:50,50.630445,-96.9807616666667,7.8,13.1,258,988.05,22.9,48,24.09,0.0,1013.77,299.2
2018-07-23 22:00,50.630435,-96.9807616666667,7.9,13.0,268,988.03,23.2,48,24.06,0.0,1013.73,311.7
2018-07-23 22:10,50.6304266666667,-96.98077,9.4,14.4,275,987.95,23.2,48,24.01,0.0,1013.65,311.7
2018-07-23 22:20,50.6304333333333,-96.9807683333333,9.3,15.6,257,988.07,22.9,49,23.99,0.0,1013.77,311.7
2018-07-23 22:30,50.6304383333333,-96.9807683333333,10.8,17.4,257,988.13,22.8,48,23.97,0.0,1013.84,311.7
2018-07-23 22:40,50.6304633333333,-96.9807616666667,9.3,13.9,262,988.08,22.8,49,23.99,0.0,1013.78,311.7
2018-07-23 22:50,50.6304533333333,-96.98075,12.4,18.2,252,988.17,22.7,48,24.05,0.0,1013.87,311.7
2018-07-23 23:00,50.630435,-96.9807433333333,10.2,16.8,255,988.16,22.6,48,24.08,0.0,1013.87,106.8
2018-07-23 23:10,50.630445,-96.9807633333333,9.0,14.4,266,988.11,22.6,48,24.11,0.0,1013.81,106.8
2018-07-23 23:20,50.6304416666667,-96.9807583333333,9.7,14.7,273,988.03,22.6,46,24.10,0.0,1013.73,106.8
2018-07-23 23:30,50.6304416666667,-96.9807583333333,8.8,14.2,268,988.10,22.4,46,24.06,0.0,1013.81,106.8
